.
WxDataArchive / Data Records for 2011-01-19
2011-01-18 January 2011 2011-01-20

Data Records for Wednesday, 19 January 2011

Time	Temp	Chill	HIndex	Humid	Dewpt	 Wind 	HiWind	WindDir	Rain 	Barom 
-----	----	-----	------	-----	-----	------	------	-------	-----	----- 
00:00	30.1	30.1	30.1	86	26.4	0	2	0	0.00	29.880 
00:05	30.1	30.1	30.1	85	26.1	0	2	0	0.00	29.880 
00:10	30.1	30.1	30.1	85	26.1	0	1	270	0.00	29.880 
00:15	30.1	30.1	30.1	85	26.1	0	2	270	0.00	29.879 
00:20	30.1	30.1	30.1	84	25.9	0	2	270	0.00	29.879 
00:25	30.1	30.1	30.1	84	25.9	0	2	270	0.00	29.879 
00:30	30.1	30.1	30.1	84	25.9	0	1	270	0.00	29.881 
00:35	30.1	30.1	30.1	84	25.9	0	1	270	0.00	29.881 
00:40	30.1	30.1	30.1	84	25.9	0	1	270	0.00	29.881 
00:45	30.1	30.1	30.1	84	25.9	0	1	270	0.00	29.876 
00:50	30.1	30.1	30.1	84	25.9	0	2	270	0.00	29.876 
00:55	30.0	30.0	30.0	84	25.8	0	1	270	0.00	29.876 
01:00	30.0	30.0	30.0	84	25.8	0	1	270	0.00	29.877 
01:05	29.8	29.8	29.8	84	25.6	0	1	270	0.00	29.877 
01:10	29.8	29.8	29.8	84	25.6	0	0	---	0.00	29.877 
01:15	29.7	29.7	29.7	84	25.5	0	1	270	0.00	29.877 
01:20	29.5	29.5	29.5	84	25.3	0	1	22	0.00	29.877 
01:25	29.4	29.4	29.4	85	25.5	1	3	68	0.00	29.877 
01:30	29.3	29.3	29.3	85	25.4	0	2	45	0.00	29.875 
01:35	29.1	29.1	29.1	85	25.2	1	4	112	0.00	29.875 
01:40	29.1	29.1	29.1	85	25.2	0	1	112	0.00	29.875 
01:45	29.1	29.1	29.1	85	25.2	0	1	112	0.00	29.881 
01:50	29.0	29.0	29.0	86	25.3	0	1	112	0.00	29.881 
01:55	29.0	29.0	29.0	85	25.1	0	1	112	0.00	29.881 
02:00	29.0	29.0	29.0	85	25.1	0	1	112	0.00	29.887 
02:05	29.0	29.0	29.0	85	25.1	0	2	22	0.00	29.887 
02:10	29.0	29.0	29.0	85	25.1	0	1	22	0.00	29.887 
02:15	28.8	28.8	28.8	85	24.9	0	2	22	0.00	29.894 
02:20	28.7	28.7	28.7	85	24.8	0	4	22	0.00	29.894 
02:25	28.5	28.5	28.5	85	24.6	0	1	270	0.00	29.894 
02:30	28.4	28.4	28.4	85	24.5	0	2	270	0.00	29.907 
02:35	28.2	28.2	28.2	85	24.3	1	3	315	0.00	29.907 
02:40	28.2	28.2	28.2	85	24.3	0	1	315	0.00	29.907 
02:45	28.2	28.2	28.2	85	24.3	0	2	315	0.00	29.913 
02:50	28.1	28.1	28.1	85	24.2	0	2	315	0.00	29.913 
02:55	27.9	27.9	27.9	86	24.3	1	3	22	0.00	29.913 
03:00	27.9	27.9	27.9	86	24.3	0	1	22	0.00	29.919 
03:05	27.8	27.8	27.8	86	24.2	0	2	292	0.00	29.919 
03:10	27.8	27.8	27.8	87	24.4	0	2	90	0.00	29.919 
03:15	27.6	27.6	27.6	87	24.2	0	1	90	0.00	29.923 
03:20	27.5	27.5	27.5	87	24.1	0	3	45	0.00	29.923 
03:25	27.3	27.3	27.3	88	24.2	0	1	45	0.00	29.923 
03:30	27.2	27.2	27.2	88	24.1	0	2	270	0.00	29.923 
03:35	27.0	27.0	27.0	88	23.9	0	2	68	0.00	29.923 
03:40	27.0	27.0	27.0	88	23.9	0	2	68	0.00	29.923 
03:45	26.9	26.9	26.9	88	23.8	0	2	68	0.00	29.924 
03:50	26.9	26.9	26.9	89	24.1	0	1	68	0.00	29.924 
03:55	26.7	26.7	26.7	89	23.9	0	0	---	0.00	29.924 
04:00	26.7	26.7	26.7	89	23.9	0	1	68	0.00	29.927 
04:05	26.7	26.7	26.7	89	23.9	0	1	68	0.00	29.927 
04:10	26.6	26.6	26.6	89	23.8	0	0	---	0.00	29.927 
04:15	26.7	26.7	26.7	90	24.2	0	0	---	0.00	29.924 
04:20	26.7	26.7	26.7	90	24.2	0	2	68	0.00	29.924 
04:25	26.7	26.7	26.7	90	24.2	0	1	68	0.00	29.924 
04:30	26.6	26.6	26.6	90	24.1	0	1	68	0.00	29.929 
04:35	26.4	26.4	26.4	90	23.9	0	2	68	0.00	29.929 
04:40	26.3	26.3	26.3	90	23.8	0	1	68	0.00	29.929 
04:45	26.3	26.3	26.3	90	23.8	0	2	45	0.00	29.932 
04:50	26.3	26.3	26.3	90	23.8	0	1	45	0.00	29.932 
04:55	26.3	26.3	26.3	90	23.8	0	1	45	0.00	29.932 
05:00	26.1	26.1	26.1	90	23.6	0	2	45	0.00	29.931 
05:05	26.1	26.1	26.1	90	23.6	0	1	45	0.00	29.931 
05:10	26.1	26.1	26.1	90	23.6	0	0	---	0.00	29.931 
05:15	26.1	26.1	26.1	90	23.6	0	1	45	0.00	29.937 
05:20	26.1	26.1	26.1	90	23.6	0	2	45	0.00	29.937 
05:25	26.1	26.1	26.1	90	23.6	0	2	45	0.00	29.937 
05:30	26.0	26.0	26.0	90	23.5	0	2	248	0.00	29.944 
05:35	26.0	26.0	26.0	91	23.7	0	1	248	0.00	29.944 
05:40	26.0	26.0	26.0	91	23.7	0	2	248	0.00	29.944 
05:45	26.0	26.0	26.0	91	23.7	0	2	248	0.00	29.948 
05:50	25.8	25.8	25.8	91	23.5	1	4	248	0.00	29.948 
05:55	25.8	25.8	25.8	91	23.5	0	3	248	0.00	29.948 
06:00	25.7	25.7	25.7	91	23.4	0	1	248	0.00	29.950 
06:05	25.7	25.7	25.7	91	23.4	0	1	248	0.00	29.950 
06:10	25.7	25.7	25.7	91	23.4	0	1	248	0.00	29.950 
06:15	25.6	25.6	25.6	91	23.3	0	1	248	0.00	29.952 
06:20	25.6	25.6	25.6	91	23.3	0	2	248	0.00	29.952 
06:25	25.4	25.4	25.4	91	23.1	0	1	248	0.00	29.952 
06:30	25.4	25.4	25.4	91	23.1	0	2	248	0.00	29.961 
06:35	25.4	25.4	25.4	91	23.1	0	1	248	0.00	29.961 
06:40	25.4	25.4	25.4	91	23.1	0	2	248	0.00	29.961 
06:45	25.4	25.4	25.4	91	23.1	0	2	248	0.00	29.965 
06:50	25.3	25.3	25.3	91	23.0	1	4	248	0.00	29.965 
06:55	25.3	25.3	25.3	91	23.0	0	2	248	0.00	29.965 
07:00	25.1	25.1	25.1	91	22.9	0	1	248	0.00	29.966 
07:05	25.1	25.1	25.1	91	22.9	0	1	248	0.00	29.966 
07:10	25.1	25.1	25.1	91	22.9	0	1	248	0.00	29.966 
07:15	25.1	25.1	25.1	91	22.9	0	1	248	0.00	29.968 
07:20	25.0	25.0	25.0	91	22.8	0	1	248	0.00	29.968 
07:25	25.0	25.0	25.0	91	22.8	0	1	248	0.00	29.968 
07:30	25.0	25.0	25.0	91	22.8	0	1	248	0.00	29.968 
07:35	25.0	25.0	25.0	91	22.8	0	1	248	0.00	29.968 
07:40	24.8	24.8	24.8	91	22.6	0	2	248	0.00	29.968 
07:45	24.8	24.8	24.8	91	22.6	0	2	248	0.00	29.966 
07:50	24.8	24.8	24.8	91	22.6	0	1	248	0.00	29.966 
07:55	24.8	24.8	24.8	91	22.6	0	1	248	0.00	29.966 
08:00	24.7	24.7	24.7	90	22.2	0	1	248	0.00	29.966 
08:05	24.5	24.5	24.5	90	22.0	0	1	248	0.00	29.966 
08:10	24.5	24.5	24.5	90	22.0	0	1	248	0.00	29.966 
08:15	24.5	24.5	24.5	90	22.0	0	2	248	0.00	29.978 
08:20	24.4	24.4	24.4	90	21.9	0	1	248	0.00	29.978 
08:25	24.4	24.4	24.4	90	21.9	0	0	---	0.00	29.978 
08:30	24.4	24.4	24.4	90	21.9	0	1	248	0.00	29.983 
08:35	24.4	24.4	24.4	90	21.9	0	1	248	0.00	29.983 
08:40	24.4	24.4	24.4	90	21.9	0	1	248	0.00	29.983 
08:45	24.4	24.4	24.4	90	21.9	0	0	---	0.00	29.988 
08:50	24.5	24.5	24.5	90	22.0	0	2	248	0.00	29.988 
08:55	24.5	24.5	24.5	90	22.0	0	1	248	0.00	29.988 
09:00	24.5	24.5	24.5	90	22.0	0	2	248	0.00	30.000 
09:05	24.4	24.4	24.4	89	21.6	0	2	248	0.00	30.000 
09:10	24.4	24.4	24.4	89	21.6	0	2	248	0.00	30.000 
09:15	24.4	24.4	24.4	89	21.6	0	1	248	0.00	30.012 
09:20	24.4	24.4	24.4	89	21.6	0	2	248	0.00	30.012 
09:25	24.4	24.4	24.4	89	21.6	0	1	248	0.00	30.012 
09:30	24.4	24.4	24.4	89	21.6	1	3	248	0.00	30.020 
09:35	24.4	24.4	24.4	88	21.4	0	2	270	0.00	30.020 
09:40	24.4	24.4	24.4	88	21.4	0	2	270	0.00	30.020 
09:45	24.4	24.4	24.4	88	21.4	1	3	270	0.00	30.022 
09:50	24.4	24.4	24.4	88	21.4	0	2	315	0.00	30.022 
09:55	24.5	24.5	24.5	88	21.5	0	2	315	0.00	30.022 
10:00	24.5	24.5	24.5	88	21.5	0	2	270	0.00	30.025 
10:05	24.4	24.4	24.4	87	21.1	1	3	338	0.00	30.025 
10:10	24.4	24.4	24.4	87	21.1	1	3	270	0.00	30.025 
10:15	24.5	24.5	24.5	87	21.2	1	2	338	0.00	30.032 
10:20	24.8	24.8	24.8	87	21.5	1	2	338	0.00	30.032 
10:25	25.0	25.0	25.0	87	21.7	1	3	0	0.00	30.032 
10:30	25.1	25.1	25.1	87	21.8	1	3	338	0.00	30.032 
10:35	25.4	25.4	25.4	87	22.1	0	2	338	0.00	30.032 
10:40	25.6	25.6	25.6	86	22.0	1	4	248	0.00	30.032 
10:45	25.6	25.6	25.6	86	22.0	1	3	248	0.00	30.035 
10:50	25.4	25.4	25.4	85	21.5	1	4	248	0.00	30.035 
10:55	25.3	25.3	25.3	84	21.2	2	5	248	0.00	30.035 
11:00	25.1	25.1	25.1	84	21.0	2	4	248	0.00	30.034 
11:05	25.3	25.3	25.3	83	20.9	1	3	315	0.00	30.034 
11:10	25.3	25.3	25.3	81	20.3	2	4	315	0.00	30.034 
11:15	25.4	25.4	25.4	80	20.1	1	3	315	0.00	30.032 
11:20	25.7	25.7	25.7	80	20.4	1	3	315	0.00	30.032 
11:25	25.6	25.6	25.6	79	20.0	2	3	292	0.00	30.032 
11:30	25.6	25.6	25.6	78	19.7	2	4	270	0.00	30.033 
11:35	25.4	25.4	25.4	77	19.2	2	4	292	0.00	30.033 
11:40	25.3	25.3	25.3	77	19.1	2	4	248	0.00	30.033 
11:45	25.3	25.3	25.3	77	19.1	1	4	270	0.00	30.035 
11:50	25.3	25.3	25.3	76	18.8	2	5	270	0.00	30.035 
11:55	25.3	25.3	25.3	76	18.8	2	5	270	0.00	30.035 
12:00	25.3	25.3	25.3	76	18.8	1	2	338	0.00	30.040 
12:05	25.4	25.4	25.4	77	19.2	2	5	270	0.00	30.040 
12:10	25.4	25.4	25.4	76	18.9	2	4	270	0.00	30.040 
12:15	25.4	25.4	25.4	75	18.6	2	5	270	0.00	30.043 
12:20	25.6	25.6	25.6	75	18.8	2	4	270	0.00	30.043 
12:25	25.7	25.7	25.7	75	18.9	2	4	270	0.00	30.043 
12:30	25.8	25.8	25.8	74	18.7	2	5	270	0.00	30.048 
12:35	25.8	25.8	25.8	73	18.4	3	5	270	0.00	30.048 
12:40	26.0	26.0	26.0	73	18.6	2	4	270	0.00	30.048 
12:45	26.0	26.0	26.0	73	18.6	2	5	270	0.00	30.047 
12:50	26.0	26.0	26.0	72	18.2	3	5	292	0.00	30.047 
12:55	26.0	26.0	26.0	73	18.6	2	5	248	0.00	30.047 
13:00	26.3	26.3	26.3	73	18.8	2	6	248	0.00	30.046 
13:05	26.1	26.1	26.1	72	18.3	2	6	315	0.00	30.046 
13:10	26.3	26.3	26.3	73	18.8	2	5	248	0.00	30.046 
13:15	26.1	26.1	26.1	72	18.3	3	6	248	0.00	30.044 
13:20	26.3	26.3	26.3	72	18.5	2	5	270	0.00	30.044 
13:25	26.4	26.4	26.4	71	18.3	2	4	292	0.00	30.044 
13:30	26.6	26.6	26.6	71	18.5	2	4	292	0.00	30.039 
13:35	26.6	26.6	26.6	71	18.5	2	4	338	0.00	30.039 
13:40	26.9	26.9	26.9	71	18.8	3	5	270	0.00	30.039 
13:45	26.7	26.7	26.7	69	17.9	2	4	315	0.00	30.040 
13:50	26.9	26.9	26.9	69	18.1	1	4	338	0.00	30.040 
13:55	27.2	27.2	27.2	70	18.7	2	4	248	0.00	30.040 
14:00	27.0	27.0	27.0	69	18.2	2	5	315	0.00	30.035 
14:05	27.2	27.2	27.2	69	18.4	2	3	248	0.00	30.035 
14:10	27.3	27.3	27.3	69	18.5	1	4	248	0.00	30.035 
14:15	27.3	27.3	27.3	69	18.5	2	3	248	0.00	30.041 
14:20	27.2	27.2	27.2	68	18.1	2	5	248	0.00	30.041 
14:25	26.9	26.9	26.9	67	17.4	3	5	270	0.00	30.041 
14:30	26.7	26.7	26.7	67	17.2	3	6	270	0.00	30.050 
14:35	26.7	26.7	26.7	66	16.9	3	5	270	0.00	30.050 
14:40	26.7	26.7	26.7	67	17.2	2	5	270	0.00	30.050 
14:45	26.7	26.7	26.7	68	17.6	2	5	270	0.00	30.055 
14:50	26.6	26.6	26.6	68	17.5	2	5	270	0.00	30.055 
14:55	26.6	26.6	26.6	68	17.5	1	3	338	0.00	30.055 
15:00	26.6	26.6	26.6	67	17.1	2	5	270	0.00	30.054 
15:05	26.6	26.6	26.6	67	17.1	1	3	315	0.00	30.054 
15:10	26.7	26.7	26.7	68	17.6	1	3	315	0.00	30.054 
15:15	26.9	26.9	26.9	68	17.8	2	4	270	0.00	30.064 
15:20	26.9	26.9	26.9	68	17.8	2	4	338	0.00	30.064 
15:25	26.7	26.7	26.7	67	17.2	1	3	270	0.00	30.064 
15:30	26.7	26.7	26.7	67	17.2	1	3	338	0.00	30.063 
15:35	26.9	26.9	26.9	67	17.4	2	3	248	0.00	30.063 
15:40	26.7	26.7	26.7	67	17.2	1	4	248	0.00	30.063 
15:45	26.9	26.9	26.9	68	17.8	1	5	248	0.00	30.070 
15:50	26.9	26.9	26.9	67	17.4	2	5	248	0.00	30.070 
15:55	26.7	26.7	26.7	66	16.9	2	4	270	0.00	30.070 
16:00	26.7	26.7	26.7	67	17.2	1	3	270	0.00	30.076 
16:05	27.0	27.0	27.0	68	17.9	1	2	270	0.00	30.076 
16:10	26.9	26.9	26.9	67	17.4	1	4	270	0.00	30.076 
16:15	26.9	26.9	26.9	67	17.4	1	3	248	0.00	30.081 
16:20	26.7	26.7	26.7	68	17.6	1	2	248	0.00	30.081 
16:25	26.7	26.7	26.7	69	17.9	1	3	0	0.00	30.081 
16:30	26.7	26.7	26.7	69	17.9	0	2	338	0.00	30.084 
16:35	26.6	26.6	26.6	69	17.8	1	3	248	0.00	30.084 
16:40	26.6	26.6	26.6	69	17.8	1	3	270	0.00	30.084 
16:45	26.4	26.4	26.4	69	17.6	1	3	315	0.00	30.086 
16:50	26.4	26.4	26.4	69	17.6	0	2	338	0.00	30.086 
16:55	26.4	26.4	26.4	70	18.0	0	2	338	0.00	30.086 
17:00	26.4	26.4	26.4	69	17.6	1	4	338	0.00	30.089 
17:05	26.3	26.3	26.3	69	17.5	1	3	315	0.00	30.089 
17:10	26.1	26.1	26.1	68	17.0	1	2	315	0.00	30.089 
17:15	26.1	26.1	26.1	68	17.0	1	3	315	0.00	30.094 
17:20	26.1	26.1	26.1	69	17.3	1	3	248	0.00	30.094 
17:25	26.0	26.0	26.0	69	17.2	1	2	248	0.00	30.094 
17:30	26.0	26.0	26.0	69	17.2	1	3	248	0.00	30.098 
17:35	26.0	26.0	26.0	69	17.2	1	3	0	0.00	30.098 
17:40	26.0	26.0	26.0	70	17.6	1	2	0	0.00	30.098 
17:45	26.0	26.0	26.0	70	17.6	1	3	0	0.00	30.110 
17:50	25.8	25.8	25.8	70	17.4	1	2	338	0.00	30.110 
17:55	25.8	25.8	25.8	70	17.4	1	2	338	0.00	30.110 
18:00	25.8	25.8	25.8	71	17.7	0	2	315	0.00	30.113 
18:05	25.7	25.7	25.7	71	17.6	0	1	315	0.00	30.113 
18:10	25.7	25.7	25.7	72	17.9	0	1	315	0.00	30.113 
18:15	25.7	25.7	25.7	72	17.9	0	1	315	0.00	30.114 
18:20	25.6	25.6	25.6	72	17.8	0	1	315	0.00	30.114 
18:25	25.6	25.6	25.6	73	18.2	0	1	315	0.00	30.114 
18:30	25.6	25.6	25.6	73	18.2	0	1	315	0.00	30.118 
18:35	25.6	25.6	25.6	73	18.2	0	1	315	0.00	30.118 
18:40	25.4	25.4	25.4	74	18.3	0	2	315	0.00	30.118 
18:45	25.4	25.4	25.4	74	18.3	0	1	315	0.00	30.134 
18:50	25.4	25.4	25.4	75	18.6	0	1	315	0.00	30.134 
18:55	25.3	25.3	25.3	75	18.5	0	2	315	0.00	30.134 
19:00	25.3	25.3	25.3	76	18.8	0	1	315	0.00	30.149 
19:05	25.3	25.3	25.3	76	18.8	0	2	315	0.00	30.149 
19:10	25.1	25.1	25.1	77	18.9	0	2	315	0.00	30.149 
19:15	25.1	25.1	25.1	77	18.9	0	1	315	0.00	30.148 
19:20	25.1	25.1	25.1	77	18.9	0	1	315	0.00	30.148 
19:25	25.1	25.1	25.1	78	19.2	0	0	---	0.00	30.148 
19:30	25.1	25.1	25.1	78	19.2	0	1	315	0.00	30.148 
19:35	25.1	25.1	25.1	78	19.2	0	0	---	0.00	30.148 
19:40	25.1	25.1	25.1	79	19.5	0	1	315	0.00	30.148 
19:45	25.1	25.1	25.1	79	19.5	0	1	315	0.00	30.154 
19:50	25.1	25.1	25.1	79	19.5	0	1	315	0.00	30.154 
19:55	25.1	25.1	25.1	79	19.5	0	1	315	0.00	30.154 
20:00	25.1	25.1	25.1	80	19.8	0	2	315	0.00	30.155 
20:05	25.1	25.1	25.1	80	19.8	0	1	315	0.00	30.155 
20:10	25.1	25.1	25.1	80	19.8	0	0	---	0.00	30.155 
20:15	25.1	25.1	25.1	79	19.5	0	2	315	0.00	30.155 
20:20	25.1	25.1	25.1	78	19.2	1	3	315	0.00	30.155 
20:25	25.1	25.1	25.1	77	18.9	0	2	315	0.00	30.155 
20:30	25.1	25.1	25.1	76	18.6	1	2	315	0.00	30.152 
20:35	25.1	25.1	25.1	74	18.0	0	2	248	0.00	30.152 
20:40	25.1	25.1	25.1	73	17.7	1	3	248	0.00	30.152 
20:45	25.1	25.1	25.1	72	17.4	1	2	248	0.00	30.158 
20:50	25.1	25.1	25.1	71	17.0	0	3	248	0.00	30.158 
20:55	25.1	25.1	25.1	71	17.0	0	2	248	0.00	30.158 
21:00	25.0	25.0	25.0	70	16.6	0	2	248	0.00	30.162 
21:05	24.8	24.8	24.8	70	16.4	1	4	248	0.00	30.162 
21:10	24.7	24.7	24.7	70	16.3	0	1	248	0.00	30.162 
21:15	24.7	24.7	24.7	70	16.3	0	2	248	0.00	30.170 
21:20	24.5	24.5	24.5	70	16.1	1	2	248	0.00	30.170 
21:25	24.5	24.5	24.5	70	16.1	0	1	248	0.00	30.170 
21:30	24.4	24.4	24.4	70	16.0	0	1	248	0.00	30.179 
21:35	24.4	24.4	24.4	70	16.0	1	2	248	0.00	30.179 
21:40	24.4	24.4	24.4	70	16.0	0	1	248	0.00	30.179 
21:45	24.2	24.2	24.2	70	15.9	0	2	248	0.00	30.178 
21:50	24.2	24.2	24.2	70	15.9	0	1	248	0.00	30.178 
21:55	24.1	24.1	24.1	70	15.8	0	1	248	0.00	30.178 
22:00	23.9	23.9	23.9	70	15.6	0	2	248	0.00	30.169 
22:05	23.9	23.9	23.9	69	15.2	1	2	248	0.00	30.169 
22:10	23.8	23.8	23.8	69	15.1	1	2	248	0.00	30.169 
22:15	23.6	23.6	23.6	69	14.9	0	2	248	0.00	30.171 
22:20	23.6	23.6	23.6	69	14.9	0	1	248	0.00	30.171 
22:25	23.5	23.5	23.5	69	14.9	1	3	248	0.00	30.171 
22:30	23.5	23.5	23.5	69	14.9	0	2	248	0.00	30.173 
22:35	23.3	23.3	23.3	69	14.7	1	2	248	0.00	30.173 
22:40	23.2	23.2	23.2	69	14.6	1	2	248	0.00	30.173 
22:45	23.2	23.2	23.2	69	14.6	1	3	248	0.00	30.180 
22:50	23.2	23.2	23.2	69	14.6	1	2	248	0.00	30.180 
22:55	23.0	23.0	23.0	69	14.4	0	2	248	0.00	30.180 
23:00	23.0	23.0	23.0	69	14.4	0	1	248	0.00	30.179 
23:05	22.9	22.9	22.9	70	14.6	0	1	248	0.00	30.179 
23:10	22.7	22.7	22.7	70	14.4	0	1	248	0.00	30.179 
23:15	22.7	22.7	22.7	71	14.7	0	1	248	0.00	30.179 
23:20	22.7	22.7	22.7	71	14.7	0	1	248	0.00	30.179 
23:25	22.5	22.5	22.5	71	14.5	0	1	248	0.00	30.179 
23:30	22.5	22.5	22.5	71	14.5	0	2	248	0.00	30.175 
23:35	22.5	22.5	22.5	71	14.5	0	1	248	0.00	30.175 
23:40	22.5	22.5	22.5	71	14.5	0	1	248	0.00	30.175 
23:45	22.5	22.5	22.5	71	14.5	0	1	248	0.00	30.180 
23:50	22.5	22.5	22.5	71	14.5	0	1	248	0.00	30.180 
23:55	22.5	22.5	22.5	72	14.9	0	1	248	0.00	30.180 

CoCoRaHS
IN-AL-39
A2 Web Hosting
Creative Commons License
GoDaddy
search engine by freefind advanced

loaded 2018-11-15 15:43:18 • last modified 2010-11-18 10:43:29
Privacy PolicyDisclaimer
• wx.awcolley.com is powered by PmWiki v.2002016 •
• all content (unless otherwise noted) © 2018 A W Colley